Regional Weather Roundup
Issued by NWS Northern Indiana

Home | Current Version | Previous Version | Graphics & Text | Print | Product List | Glossary On
Versions: 1 2 3 4 5 6 7 8 9 10 11 12 13 14 15 16 17 18 19 20 21 22 23 24 25 26 27 28 29 30 31 32 33 34 35 36 37 38 39 40 41 42 43 44 45 46 47 48 49 50
000
ASUS43 KIWX 172310
RWRIWX

KIWX WEATHER ROUNDUP
NATIONAL WEATHER SERVICE NORTHERN INDIANA
600 PM EST SUN DEC 17 2017

NOTE: "FAIR" INDICATES FEW OR NO CLOUDS BELOW 12,000 FEET WITH NO
SIGNIFICANT WEATHER AND/OR OBSTRUCTIONS TO VISIBILITY.

* THESE STATIONS ARE NOT UNDER NWS QUALITY CONTROL. THEY ALSO MAY NOT
  REPORT WEATHER SUCH AS PRECIPITATION OR FOG.

INZ001>027-180000-
NORTHERN INDIANA

CITY           SKY/WX    TMP DP  RH WIND       PRES   REMARKS
GARY*          CLOUDY    46  32  57 VRB5      30.00R
VALPARAISO     CLOUDY    42  35  76 S5        30.01R
MICHIGAN CITY* CLOUDY    41  32  70 S6        30.01R
LAPORTE*       CLOUDY    39  34  82 SW6       30.01R
KNOX*          CLOUDY    41  34  75 SW3       30.01R
SOUTH BEND     CLOUDY    36  33  89 SE5       30.01S
ELKHART*       CLOUDY    37  32  81 S5        30.01R
GOSHEN         CLOUDY    38  32  79 SE6       30.01S
MONTICELLO*    CLOUDY    42  34  75 S5        30.02S
LOGANSPORT*    CLOUDY    36  34  93 S7        30.04R
ROCHESTER*     CLOUDY    41  36  81 S7        30.03R
WARSAW*        CLOUDY    39  34  81 CALM      30.02S
AUBURN*        CLOUDY    36  32  87 CALM      30.03F
FORT WAYNE     CLOUDY    38  36  92 S7        30.03F
HUNTINGTON*    CLOUDY    38  36  92 CALM      30.03F
PERU/GRISSOM   CLOUDY    39  39 100 S6        30.02F
MARION*        CLOUDY    38  36  91 S10       30.05R

$$
INZ028>050-180000-
CENTRAL INDIANA

CITY           SKY/WX    TMP DP  RH WIND       PRES   REMARKS
LAFAYETTE      CLOUDY    43  38  82 S5        30.04R
KOKOMO*        CLOUDY    39  36  89 S8        30.05R
MUNCIE*        CLOUDY    41  36  82 S7        30.05R
INDIANAPOLIS   CLOUDY    42  38  85 S9        30.07R

$$
MIZ043>046-050>051-056>058-064>065-071>073-077>080-180000-
SOUTHWEST LOWER MICHIGAN

CITY           SKY/WX    TMP DP  RH WIND       PRES   REMARKS
BATTLE CREEK   CLOUDY    33  29  85 SE5       30.01F WCI  29
BENTON HARBOR  CLOUDY    37  30  75 SE6       29.99F
COLDWATER*     CLOUDY    33  32  96 SE7       30.01F FOG     WCI  27
HILLSDALE*     CLOUDY    32  30  93 SE3       30.02S FOG
HOLLAND        CLOUDY    31  27  85 E7        30.00F WCI  24
GRAND RAPIDS   CLOUDY    30  28  92 E7        30.01F FOG     WCI  23
KALAMAZOO      CLOUDY    33  28  81 CALM      30.01F
STURGIS*       CLOUDY    36  32  87 SE6       30.01S
THREE RIVERS*  FAIR      35  31  87 CALM      30.02S

$$
OHZ001>008-015>018-024>025-180000-
NORTHWEST OHIO

CITY           SKY/WX    TMP DP  RH WIND       PRES   REMARKS
WAUSEON*       CLOUDY    32  32 100 CALM      30.05S FOG
DEFIANCE       CLOUDY    33  31  92 E3        30.05S FOG
FINDLAY        CLOUDY    38  33  82 S9        30.05S
TOLEDO EXPRESS CLOUDY    34  32  92 CALM      30.06R
TOLEDO METCALF CLOUDY    34  30  85 E3        30.06F FOG
LIMA           CLOUDY    37  36  96 S7        30.05S

$$
AND FOR LAKE MICHIGAN COASTAL AND OPEN LAKE BUOY OBSERVATIONS

STATION/POSITION TEMP    WIND        PRES    VSBY  WAVE
                 AIR SEA DIR/SP/G                  HT/PER
                 (F)     (DEG/KT/KT) (MB)    (MI)  (FT/S)
CALUMET HARBOR            CALM  /  1 1014.8R
MICHIGAN CITY     43     160/ 10/ 12   N/A
BURNS HARBOR      44     190/  9/ 11 1015.9S
SAINT JOSEPH      37     140/  2/  5 1015.9

$$
&&




USA.gov is the U.S. government's official web portal to all federal, state and local government web resources and services.